Home > Weather > Mamoutzou > Past weeks

Flag for Mayotte Past Weather in Mamoutzou, Mayotte — Yesterday and Last 2 Weeks

Now
72 °F

Mild.


Feels Like: 72 °F
Forecast: 73 / 78 °F
Wind: 7 mph from Southwest

Location: Dzaoudzi / Pamanzi Mayotte

Current Time: Aug 26, 2016 at 1:10:26 AM

Latest Report: Aug 26, 2016 at 1:00 AM


Visibility: N/A

Pressure: 30.04 "Hg

Humidity: 78%

Dew Point: 64 °F

Location of MamoutzouLocation

Past Weather in Mamoutzou — Graph

°F

Mamoutzou Temperature Yesterday

Maximum temperature yesterday: 82 °F (at 9:00 AM)
Minimum temperature yesterday: 72 °F (at 11:00 PM)
Average temperature yesterday: 77 °F

High & Low Weather Summary for the Past Weeks

 TemperatureHumidityPressure
High84 °F (Aug 15, 1:30 PM)94% (Aug 22, 6:30 AM)30.12 "Hg (Aug 22, 6:30 AM)
Low66 °F (Aug 21, 4:00 AM)51% (Aug 19, 9:30 AM)29.98 "Hg (Aug 17, 3:06 PM)
Average77 °F71%30.05 "Hg
* Reported Aug 11 12:00 AM — Aug 26 12:00 AM, Mamoutzou, Weather by CustomWeather, © 2016

Note: Actual official high and low records may vary slightly from our data, if they occured in-between our weather recording intervals... More about our weather records

Advertising

Mamoutzou Weather History for the Previous 24 Hours

Scroll right to see more
 ConditionsComfort  
Time TempWeatherWind HumidityBarometerVisibility
12:00 AM
Fri, Aug 26
70 °FClear.8 mph83%30.07 "HgN/A
11:30 PM
Thu, Aug 25
72 °FMild.3 mph73%30.07 "HgN/A
11:00 PM72 °FMild.2 mph73%30.07 "HgN/A
10:30 PM73 °FMild.5 mph69%30.09 "HgN/A
10:00 PM73 °FMild.5 mph69%30.09 "HgN/A
9:30 PM73 °FMild.6 mph69%30.09 "HgN/A
9:00 PM75 °FMild.5 mph65%30.09 "HgN/A
8:30 PM75 °FMild.6 mph69%30.07 "HgN/A
8:00 PM75 °FPassing clouds.N/A69%30.07 "HgN/A
7:30 PM75 °FPassing clouds.9 mph69%30.07 "HgN/A
7:00 PM75 °FMild.8 mph69%30.07 "HgN/A
6:30 PM75 °FPassing clouds.9 mph69%30.07 "HgN/A
6:00 PM77 °FPassing clouds.9 mph61%30.04 "HgN/A
5:30 PM77 °FPassing clouds.9 mph61%30.04 "HgN/A
5:00 PM79 °FPassing clouds.10 mph61%30.04 "HgN/A
4:30 PM79 °FPassing clouds.12 mph61%30.04 "HgN/A
4:00 PM81 °FPassing clouds.10 mph58%30.04 "HgN/A
3:30 PM81 °FPassing clouds.10 mph58%30.04 "HgN/A
3:00 PM81 °FPassing clouds.13 mph58%30.04 "HgN/A
2:30 PM82 °FPassing clouds.14 mph55%30.04 "HgN/A
2:00 PM82 °FPassing clouds.13 mph55%30.04 "HgN/A
1:30 PM82 °FPassing clouds.12 mph55%30.04 "HgN/A
1:00 PM82 °FScattered clouds.13 mph51%30.04 "HgN/A
12:30 PM82 °FScattered clouds.13 mph55%30.07 "HgN/A
12:00 PM82 °FPassing clouds.13 mph55%30.07 "HgN/A
11:30 AM82 °FPassing clouds.14 mph55%30.07 "HgN/A
11:00 AM82 °FScattered clouds.14 mph58%30.07 "HgN/A
10:30 AM82 °FPassing clouds.14 mph58%30.07 "HgN/A
10:00 AM82 °FPassing clouds.13 mph58%30.09 "HgN/A
9:30 AM82 °FScattered clouds.13 mph58%30.07 "HgN/A
9:00 AM82 °FScattered clouds.12 mph58%30.07 "HgN/A
8:30 AM81 °FScattered clouds.13 mph62%30.07 "HgN/A
7:30 AM79 °FPartly sunny.12 mph65%30.07 "HgN/A
7:00 AM77 °FScattered clouds.13 mph69%30.04 "HgN/A
6:30 AM75 °FScattered clouds.13 mph74%30.04 "HgN/A
6:00 AM75 °FPassing clouds.13 mph74%30.04 "HgN/A
5:30 AM77 °FPassing clouds.13 mph69%30.01 "HgN/A
5:00 AM75 °FPassing clouds.14 mph74%30.01 "HgN/A
4:30 AM75 °FPassing clouds.14 mph69%30.01 "HgN/A
4:00 AM75 °FPassing clouds.14 mph74%30.01 "HgN/A
3:30 AM75 °FPassing clouds.15 mph74%30.01 "HgN/A
3:00 AM75 °FPassing clouds.15 mph74%30.01 "HgN/A
2:30 AM75 °FPassing clouds.14 mph74%30.01 "HgN/A
2:00 AM73 °FPassing clouds.13 mph78%30.01 "HgN/A
1:30 AM73 °FMild.12 mph78%30.04 "HgN/A
1:00 AM73 °FMild.10 mph78%30.04 "HgN/A
Weather by CustomWeather, © 2016

See weather overviewHow to use our weather pages